SCP
1 2 2 2 1 1 1 2 2 1 1 1 1 1 1 1 1 1 1 1 1 1 2 2 1 1 1 1 1 1 0 0 0 0 1 1 1 1 1 0 0 0 0
2 2 2 2 1 1 2 2 2 1 1 1 1 1 1 1 1 1 1 2 2 2 2 2 1 1 1 1 1 1 0 0 0 0 0 0 1 1 1 0 0 0 0
2 2 2 2 2 2 2 2 1 1 1 1 1 1 1 1 1 2 2 3 3 2 2 2 2 1 1 1 1 1 1 0 0 0 0 0 1 1 1 0 0 0 0
2 3 3 3 3 2 2 2 2 1 1 1 1 1 2 2 2 3 3 3 3 2 2 2 2 2 1 1 1 1 1 1 0 0 0 0 1 0 0 0 0 0 0
3 3 4 4 3 2 2 2 3 3 2 2 2 2 3 3 3 3 3 2 2 1 1 2 2 2 2 1 1 1 1 1 1 1 0 0 1 1 0 0 0 0 0
5 5 4 4 3 3 3 4 5 5 4 3 3 4 3 3 3 2 2 1 1 1 1 2 2 2 2 2 1 1 1 1 1 1 1 1 1 1 1 1 0 0 0
7 7 6 5 4 4 5 6 6 6 5 4 4 3 3 2 2 1 1 1 1 1 1 1 2 2 2 2 1 1 1 1 1 1 1 1 1 1 1 1 1 0 0
6 7 7 7 6 6 6 6 6 5 4 4 3 2 2 1 1 1 1 1 1 1 1 1 1 2 2 2 1 1 1 1 1 1 1 1 1 1 1 1 1 1 1
4 5 6 7 6 6 5 4 4 4 3 3 2 2 1 1 1 1 1 1 1 1 1 1 1 2 2 2 2 1 1 1 1 1 1 2 2 1 1 1 1 1 1
3 3 5 6 6 5 4 3 3 3 3 2 2 1 1 1 1 1 1 1 1 1 1 1 1 1 2 2 2 1 1 1 1 1 1 2 2 2 2 1 1 1 1
4 4 5 6 6 5 3 3 3 3 2 2 1 1 1 1 1 1 1 1 1 1 1 1 1 2 2 2 2 2 1 1 1 1 1 1 1 1 2 2 2 1 1
5 5 6 6 5 4 3 3 3 4 3 2 1 1 1 1 1 1 1 1 1 1 1 2 2 2 2 2 2 2 1 1 1 0 0 0 0 1 1 1 2 2 2
6 7 7 6 4 4 4 4 5 5 4 3 2 1 1 1 1 1 1 1 1 2 2 2 2 2 2 3 3 3 2 2 1 1 0 0 0 0 1 1 2 2 2
7 7 7 6 4 4 4 5 6 6 6 4 2 2 1 1 1 1 1 1 2 2 2 3 3 3 3 3 3 3 3 2 2 1 1 1 1 1 1 1 1 2 2
7 7 6 5 4 4 4 6 8 8 7 5 3 2 2 2 2 2 2 2 2 2 3 3 3 3 3 3 3 3 3 3 2 2 1 1 1 1 1 1 1 1 2
7 7 6 5 4 3 3 6 8 9 8 6 4 3 2 2 2 3 3 2 3 3 3 4 4 4 3 3 3 3 3 3 3 3 2 1 1 1 0 0 1 1 1
8 7 6 6 4 3 3 5 8 9 9 7 5 4 3 3 3 3 2 2 2 3 3 4 4 4 4 3 2 2 3 3 4 3 3 2 1 1 1 1 1 1 1
7 7 6 5 3 2 3 5 7 8 9 8 6 4 3 3 4 3 3 2 2 3 3 4 5 5 4 3 2 2 2 3 4 4 3 2 2 1 1 1 1 1 1
6 5 5 3 3 2 3 4 5 7 7 7 6 5 5 5 5 4 4 4 3 3 3 4 4 4 3 3 2 2 3 4 4 4 3 2 2 1 1 1 1 1 1
5 4 4 3 2 2 2 3 4 5 5 5 5 5 5 5 5 5 4 4 4 3 3 3 4 4 3 2 2 2 3 4 4 4 4 2 1 1 1 1 1 1 1
5 4 4 3 2 2 3 3 4 4 3 3 3 3 4 4 4 5 4 4 3 3 3 4 4 4 3 2 2 2 3 4 5 4 4 2 1 1 1 1 1 1 1
6 5 4 3 2 2 3 4 4 3 2 2 2 3 3 3 4 4 5 4 3 3 3 4 4 4 3 3 2 1 2 3 4 4 3 2 1 1 0 0 1 1 0
5 4 3 3 3 3 4 5 5 3 2 2 2 3 3 3 4 4 5 4 4 4 4 5 5 4 3 3 3 2 1 2 3 3 2 1 1 1 1 1 1 1 1
3 3 3 3 3 4 5 4 4 3 2 1 2 3 4 4 4 4 4 5 5 6 6 6 5 4 4 4 4 3 2 1 2 2 1 1 1 1 1 1 1 1 1
2 2 2 3 4 4 4 3 3 2 2 1 2 3 5 6 6 5 4 4 5 5 6 6 6 5 4 4 4 4 3 2 1 1 1 1 1 1 1 1 1 1 1
2 2 2 3 3 3 3 3 3 2 2 2 2 3 5 7 6 5 4 3 3 4 4 5 6 5 4 4 4 3 2 2 1 1 1 2 2 1 1 1 1 1 1
Wind_Speed
7 6 7 7 6 4 4 3 2 1 1 1 1 1 0 0 0 0 1 0 0 0 1 0 0 0 0 0 1 1 0 0 1 1 1 2 1 1 2 2 2 4 4
6 6 6 6 5 5 4 3 3 2 1 1 1 1 1 0 1 1 1 0 0 0 1 1 0 0 0 1 1 1 0 1 0 1 1 1 2 2 2 1 2 3 3
10 8 7 6 5 5 4 4 3 2 1 1 1 1 2 2 2 2 1 1 0 0 0 0 0 0 0 0 1 1 2 1 1 1 2 2 2 2 2 2 2 3 3
9 8 8 7 7 6 5 4 3 2 1 2 2 2 2 1 1 1 1 1 1 1 1 1 1 0 0 0 1 1 1 1 1 1 1 2 3 2 1 2 2 3 3
10 9 9 8 7 6 5 4 3 2 2 2 3 2 1 0 0 1 1 1 1 1 1 1 0 1 1 1 1 1 1 1 2 1 1 1 1 1 2 2 2 2 2
8 8 7 7 6 5 5 4 4 3 2 2 2 2 2 1 2 2 1 1 1 1 1 1 1 1 1 1 2 1 1 1 1 1 1 1 1 1 2 2 2 2 2
8 8 8 7 7 6 6 5 5 3 2 3 2 2 2 1 1 0 0 1 1 1 2 1 1 1 2 1 1 1 1 1 1 2 1 1 2 2 2 2 1 1 1
8 8 9 8 8 7 6 5 5 4 3 3 2 1 1 1 0 0 0 0 1 1 2 1 1 1 1 1 1 1 1 1 1 1 1 1 2 1 1 2 2 1 1
8 8 8 8 8 7 6 6 6 5 4 3 3 2 1 1 1 0 0 0 1 1 1 1 2 2 1 1 1 1 2 1 1 1 1 1 2 1 1 1 2 3 2
7 7 6 7 7 7 6 6 6 6 5 4 3 3 1 1 1 0 0 1 1 1 1 2 1 1 1 1 1 1 2 1 2 1 1 1 1 1 1 1 1 2 3
7 6 6 6 6 6 6 5 5 5 4 4 3 3 2 2 1 1 1 1 1 1 1 1 1 1 1 1 1 2 2 1 2 2 1 2 1 1 1 1 1 1 2
6 6 6 6 6 6 5 6 5 5 5 4 3 3 2 1 1 1 1 1 1 1 1 1 1 1 1 1 1 2 2 1 2 2 2 2 1 1 1 1 1 2 2
5 5 5 5 6 6 5 5 5 5 4 3 3 2 2 2 2 2 2 1 1 1 1 1 1 1 1 1 2 2 2 2 2 2 2 2 1 2 2 2 2 2 2
5 5 4 4 4 5 5 5 5 5 5 4 3 3 3 3 2 2 2 2 1 1 1 1 2 2 2 2 2 2 2 2 3 2 2 2 2 2 2 2 2 2 2
5 5 4 4 3 3 4 4 4 4 4 4 3 3 3 2 2 2 2 2 1 1 1 1 2 2 2 2 2 2 2 2 3 3 3 3 3 3 3 2 2 2 2
6 4 4 4 3 4 4 3 3 3 3 3 3 2 2 2 2 2 2 1 2 2 2 2 2 3 3 4 4 3 2 2 3 3 4 4 3 4 4 4 3 2 3
6 4 3 3 2 2 3 4 4 3 3 3 2 2 2 2 3 2 2 2 3 2 3 3 3 3 4 5 4 4 2 3 3 4 3 4 4 3 3 4 5 5 5
6 4 3 3 2 2 3 3 3 3 3 3 2 2 2 3 3 2 2 3 3 3 3 3 3 3 4 5 4 4 3 3 3 4 4 4 4 4 3 3 4 4 5
6 5 5 5 4 3 3 3 3 2 2 1 2 2 3 3 2 3 3 3 2 3 3 3 3 3 4 4 4 4 2 3 4 4 4 4 4 6 5 3 4 5 6
6 6 6 6 4 3 3 4 3 2 0 1 2 2 2 2 3 4 3 3 2 3 2 2 3 3 4 4 4 3 2 3 3 3 4 5 5 6 5 4 4 6 6
6 6 6 4 3 2 4 3 2 0 2 1 1 2 2 3 3 2 2 2 2 2 2 2 2 3 3 4 4 4 2 3 3 3 3 4 7 7 7 5 5 7 6
5 5 5 3 2 3 4 3 1 2 1 1 1 2 2 2 1 1 2 1 1 2 3 2 3 3 3 3 4 5 5 4 3 4 4 4 6 6 6 4 5 6 4
4 4 4 3 2 2 4 3 1 1 1 1 2 2 2 2 1 1 2 1 1 2 3 2 3 3 3 3 5 6 6 6 3 4 5 6 5 4 4 5 6 4 2
3 3 4 3 2 1 2 2 1 0 1 1 2 2 2 2 2 1 1 1 2 2 2 3 3 3 3 3 3 3 3 4 3 3 4 5 4 3 4 4 3 2 2
2 3 3 3 2 2 1 1 0 0 0 1 2 2 1 1 2 2 2 2 3 3 3 3 2 2 3 5 4 3 2 2 2 2 2 2 2 3 3 3 2 2 2
2 2 2 2 2 1 0 1 1 0 0 1 2 2 2 2 2 2 3 4 2 3 3 3 3 3 5 6 5 5 4 4 2 1 1 2 2 2 2 2 3 2 2
Wind_Direction
170 158 154 150 142 137 130 126 119 119 100 74 74 79 331 268 291 262 248 229 265 133 133 117 335 61 129 240 227 166 79 272 107 73 0 343 328 208 208 202 188 198 205
164 165 157 152 149 148 145 132 133 134 132 143 170 173 180 205 192 284 322 279 263 226 154 147 219 218 124 343 317 167 151 256 151 133 86 349 336 314 243 216 199 204 197
174 176 171 162 152 153 159 152 148 134 132 125 86 60 50 32 25 359 344 321 342 42 69 91 55 33 116 240 266 215 187 226 266 166 151 156 227 290 299 244 222 212 202
175 176 173 165 164 164 156 147 143 132 126 118 102 101 102 103 256 261 292 325 336 8 19 41 53 33 349 245 258 223 205 183 248 269 212 187 177 176 262 297 260 232 217
181 176 172 171 169 163 158 157 143 135 127 116 120 109 95 137 328 16 26 4 344 346 358 21 1 321 309 286 293 287 223 188 202 219 225 220 223 190 170 249 282 269 246
174 168 163 156 158 162 160 157 147 146 142 125 116 117 111 73 54 34 30 1 340 338 340 334 321 304 304 293 282 270 241 234 224 226 211 188 185 209 181 208 249 253 259
167 163 157 158 163 167 166 164 156 154 148 134 128 131 134 113 104 83 42 353 344 332 317 319 308 308 297 294 307 316 286 257 241 232 236 228 218 196 181 175 212 240 273
171 172 169 167 168 169 168 165 161 160 155 146 149 133 127 126 118 112 109 311 272 284 314 331 328 329 330 335 343 339 303 301 267 267 249 250 255 220 192 178 167 166 301
176 178 174 168 167 166 173 172 165 164 163 161 155 137 131 121 103 85 85 315 298 313 342 331 338 340 351 3 8 346 316 310 286 278 268 259 269 257 228 193 165 159 190
173 175 172 169 168 170 171 172 166 170 172 167 166 151 162 172 172 126 358 314 309 329 343 334 334 338 344 350 2 337 320 324 307 297 308 298 278 281 265 229 181 155 165
172 175 175 175 168 169 168 168 170 168 165 168 167 160 166 173 162 188 238 266 293 309 324 320 324 319 324 328 339 323 335 333 319 320 324 298 292 310 303 262 189 176 159
162 168 167 164 165 169 174 177 177 175 178 174 165 167 170 165 187 239 248 249 282 285 281 295 305 295 311 309 303 308 326 317 310 307 317 302 299 300 296 290 245 226 202
145 148 153 166 170 175 178 179 176 174 169 165 164 170 188 188 211 246 255 257 264 279 299 309 276 276 287 293 280 272 284 286 283 285 287 287 282 285 283 268 258 245 231
142 141 150 162 172 178 177 173 173 168 161 160 165 188 208 211 217 233 246 247 244 239 265 269 256 254 263 276 282 278 275 280 280 280 274 274 259 264 269 270 260 248 231
133 141 146 153 156 159 171 174 172 170 163 159 168 193 204 209 216 232 250 257 254 258 251 271 274 265 266 276 289 281 282 276 279 282 275 270 273 278 268 270 252 241 231
143 145 143 144 152 160 166 161 160 160 151 158 182 188 188 198 221 234 241 255 263 269 262 261 260 269 283 295 288 280 272 273 272 279 278 274 270 279 279 279 270 237 223
144 145 149 151 149 144 148 147 150 149 146 160 183 186 190 202 221 232 237 245 252 262 265 263 258 259 272 284 280 275 263 264 266 268 270 280 286 275 274 280 279 266 252
139 140 134 116 106 108 110 132 131 136 151 172 191 197 197 215 228 231 241 248 249 254 256 259 255 260 285 286 275 278 266 265 267 263 257 259 275 275 260 267 278 272 266
137 135 125 116 102 101 117 116 114 117 126 182 219 223 210 214 225 235 244 244 248 259 259 258 251 254 281 287 279 276 270 273 277 275 272 261 266 275 263 254 268 278 281
122 123 118 115 117 129 121 105 100 92 124 250 252 249 229 219 228 238 246 250 249 255 264 271 257 249 263 283 282 272 261 274 283 286 278 269 275 282 269 245 251 267 275
124 123 120 118 129 129 114 107 98 164 250 271 302 296 274 251 239 244 256 267 267 281 277 273 274 267 265 281 285 277 257 255 267 277 283 288 291 284 275 254 245 254 264
125 123 121 121 123 121 118 116 163 259 288 349 347 317 299 285 290 255 263 276 281 288 285 280 285 283 277 275 280 275 266 265 248 263 275 284 292 291 286 271 271 272 271
132 131 132 131 130 135 129 133 236 320 26 13 332 314 313 302 296 266 264 277 279 276 281 277 278 291 296 293 292 285 275 273 262 267 284 295 296 295 290 282 278 275 275
138 136 134 142 163 164 137 161 197 75 43 356 325 327 329 320 320 294 248 233 239 251 273 276 276 288 300 306 312 305 292 286 291 293 298 301 308 307 298 302 299 276 260
137 134 142 159 186 182 184 216 254 98 69 331 308 303 302 299 304 295 262 243 234 220 221 245 252 270 288 288 290 287 294 286 283 310 335 352 350 345 332 322 315 314 323
135 132 137 148 178 180 200 257 240 157 139 315 311 307 303 299 298 301 312 322 309 296 261 246 246 258 268 291 303 300 298 300 314 74 325 300 299 302 308 311 314 320 314